Flag for Norway Weather past 2 weeks in Sarpsborg, Norway

Now
63 °F

Overcast.


Feels Like: 63 °F
Forecast: 56 / 67 °F
Wind: 6 mph from Southeast

Location: Rygge

Current Time: Aug 5, 2015 at 4:38:17 AM

Latest Report: Aug 5, 2015 at 3:50 AM


Visibility: 4 mi

Pressure: 29.86 "Hg

Humidity: 94%

Dew point: 61 °F

Location of SarpsborgLocation

Historic Weather in Sarpsborg — Graph

°F

Sarpsborg temperature yesterday

Maximum temperature yesterday: 68 °F (at 6:20 PM)
Minimum temperature yesterday: 50 °F (at 3:50 AM)
Average temperature yesterday: 59 °F

Past Weeks' High & Low Weather Summary

 TemperatureHumidityPressure
High72 °F (Jul 30, 3:50 PM)100% (Jul 25, 3:50 AM)30.15 "Hg (Jul 25, 3:50 AM)
Low48 °F (Jul 25, 4:50 AM)35% (Jul 23, 6:50 PM)29.39 "Hg (Jul 26, 10:20 AM)
Average58 °F80%29.71 "Hg
* Reported Jul 21 3:50 AM — Aug 5 3:20 AM, Sarpsborg, Weather by CustomWeather, © 2015

Note: Actual official high and low records may vary slightly from our data, if they occured in-between our weather recording intervals... More about our weather records

Advertising

Sarpsborg weather history for previous 24 hours

 ConditionsComfort  
Time TempWeatherWind HumidityBarometerVisibility
3:20 AM
Wed, Aug 5
61 °FRain. Low clouds.6 mph100%29.86 "Hg4 mi
2:50 AM61 °FDrizzle. Overcast.6 mph100%29.86 "Hg4 mi
2:20 AM61 °FLight rain. Mostly cloudy.5 mph100%29.86 "Hg2 mi
1:50 AM61 °FRain. Mostly cloudy.6 mph100%29.86 "Hg2 mi
1:20 AM61 °FRain. Overcast.3 mph100%29.89 "Hg1 mi
12:50 AM61 °FRain. Mostly cloudy.6 mph100%29.89 "Hg1 mi
12:20 AM61 °FLight rain. Mostly cloudy.2 mph100%29.89 "Hg3 mi
11:50 PM
Tue, Aug 4
61 °FRain. Mostly cloudy.6 mph100%29.89 "Hg2 mi
11:20 PM61 °FLight rain. Mostly cloudy.5 mph94%29.89 "Hg2 mi
10:50 PM61 °FRain. Passing clouds.3 mph94%29.89 "Hg3 mi
10:20 PM61 °FRain. More clouds than sun.5 mph94%29.92 "Hg2 mi
9:50 PM61 °FRain. Broken clouds.9 mph94%29.89 "Hg3 mi
9:20 PM63 °FThundershowers. Scattered clouds.5 mph94%29.89 "HgN/A
8:50 PM63 °FThundershowers. Clear.6 mph94%29.89 "HgN/A
8:20 PM64 °FSunny.7 mph94%29.89 "Hg10 mi
7:50 PM64 °FSunny.6 mph94%29.89 "Hg10 mi
7:20 PM66 °FScattered clouds.5 mph88%29.92 "HgN/A
6:50 PM68 °FRain. Scattered clouds.5 mph83%29.92 "HgN/A
6:20 PM68 °FPassing clouds.3 mph83%29.92 "HgN/A
5:50 PM66 °FScattered clouds.3 mph83%29.92 "HgN/A
5:20 PM66 °FLight rain. Scattered clouds.3 mph83%29.95 "HgN/A
4:50 PM66 °FSunny.5 mph78%29.95 "Hg10 mi
4:20 PM66 °FPassing clouds.7 mph78%29.95 "HgN/A
3:50 PM66 °FSunny.7 mph78%29.95 "Hg10 mi
3:20 PM64 °FScattered clouds.6 mph83%29.98 "HgN/A
2:50 PM64 °FScattered clouds.5 mph83%29.98 "HgN/A
2:20 PM63 °FPartly sunny.2 mph83%30.01 "HgN/A
1:50 PM61 °FBroken clouds.5 mph94%30.01 "HgN/A
1:20 PM61 °FLight rain. Scattered clouds.5 mph88%30.01 "HgN/A
12:50 PM63 °FBroken clouds.5 mph88%30.01 "HgN/A
12:20 PM61 °FScattered clouds.6 mph88%29.98 "HgN/A
11:50 AM59 °FPartly sunny.5 mph94%29.98 "HgN/A
11:20 AM61 °FRain. Broken clouds.3 mph83%30.01 "Hg6 mi
10:50 AM59 °FSunny.7 mph88%29.98 "Hg10 mi
10:20 AM59 °FPartly sunny.5 mph82%30.01 "HgN/A
9:50 AM57 °FLight rain. Broken clouds.8 mph88%30.01 "HgN/A
9:20 AM57 °FSprinkles. Broken clouds.7 mph88%30.01 "HgN/A
8:50 AM55 °FScattered showers. Broken clouds.3 mph88%30.04 "HgN/A
7:50 AM55 °FSunny.2 mph88%30.04 "Hg10 mi
7:20 AM55 °FSunny.3 mph88%30.04 "Hg10 mi
6:50 AM55 °FSunny.2 mph82%30.04 "Hg10 mi
6:20 AM54 °FSunny.2 mph88%30.04 "Hg10 mi
5:50 AM54 °FCool.1 mph88%30.04 "HgN/A
5:20 AM52 °FCool.3 mph88%30.04 "HgN/A
4:50 AM52 °FCool.5 mph94%30.04 "HgN/A
4:20 AM50 °FCool.6 mph94%30.04 "HgN/A
Weather by CustomWeather, © 2015

See weather overviewHow to use our weather pages